Weather History for Mullan Pass, ID

Change the Weather History Date:

Sunday, March 2, 2014

  Actual Average (K3TH) Record (K3TH)
Temperature  
Mean Temperature 14 °F -  
Max Temperature 30 °F 39 °F 48 °F (1999)
Min Temperature -2 °F 25 °F 30 °F (1999)
Degree Days  
Heating Degree Days 51    
Moisture  
Dew Point 12 °F    
Average Humidity 84    
Maximum Humidity 93    
Minimum Humidity 72    
Precipitation  
Precipitation 0.69 in - - ()
Sea Level Pressure  
Sea Level Pressure 29.73 in    
Wind  
Wind Speed 8 mph (South)    
Max Wind Speed 13 mph    
Max Gust Speed 29 mph    
Visibility 1 miles    
Events Fog , Rain , Snow    
Averages and records for this station are not official NWS values.
T = Trace of Precipitation, MM = Missing Value Source: NWS Daily Summary

Daily Weather History Graph

Daily Weather History Graph

Search for Another Location

Airport:

Trip Planner

Search our weather history database for the weather conditions in past years. The results will help you decide how hot, cold, wet, or windy it might be!

Date:

Astronomy

Mar. 02, 2014 Rise Set
Actual Time 6:20 AM PST 5:29 PM PST
Civil Twilight 5:50 AM PST 6:00 PM PST
Nautical Twilight 5:14 AM PST 6:35 PM PST
Astronomical Twilight 4:39 AM PST 7:11 PM PST
Moon 6:46 AM PST (3/2) 7:41 PM PST (3/2)
Length of Visible Light 12h 09m
Length of Day
11h 08m
Waxing Crescent, 3% of the Moon is Illuminated
Mar 2
Waxing Crescent
Mar 8
First Quarter
Mar 16
Full
Mar 23
Last Quarter
Mar 30
New

Hourly Weather History & Observations

Time (PST) Temp. Windchill Dew Point Humidity Pressure Visibility Wind Dir Wind Speed Gust Speed Precip Events Conditions
12:05 AM -2.2 °F -19.9 °F -7.6 °F 78% 29.63 in 5.0 mi South 11.5 mph - 0.00 in Rain Light Freezing Rain
12:16 AM -2.2 °F -18.0 °F -7.6 °F 78% 29.64 in 3.0 mi SSE 9.2 mph - 0.00 in Snow Light Snow
12:23 AM -2.2 °F -18.0 °F -7.6 °F 78% 29.64 in 1.8 mi SSE 9.2 mph - 0.00 in   Overcast
12:53 AM -2.0 °F -16.6 °F -7.1 °F 79% 30.00 in 1.5 mi SSE 8.1 mph - 0.00 in Snow Light Snow
1:05 AM -2.2 °F -18.0 °F -7.6 °F 78% 29.65 in 3.0 mi SSE 9.2 mph - 0.00 in   Haze
1:45 AM -2.2 °F -19.9 °F -7.6 °F 78% 29.65 in 1.8 mi SSE 11.5 mph - 0.00 in Snow Light Snow
1:53 AM -2.0 °F -19.6 °F -7.1 °F 79% 30.01 in 1.2 mi SSE 11.5 mph - 0.00 in Snow Light Snow
2:31 AM 1.4 °F -12.5 °F -5.8 °F 72% 29.65 in 1.2 mi South 8.1 mph - 0.01 in Snow Light Snow
2:43 AM 3.2 °F -10.3 °F -2.2 °F 78% 29.65 in 1.5 mi South 8.1 mph - 0.01 in Snow Light Snow
2:53 AM 1.9 °F -10.6 °F -2.0 °F 83% 29.99 in 1.8 mi South 6.9 mph - 0.01 in Snow Light Snow
3:09 AM 1.4 °F -12.5 °F -4.0 °F 78% 29.65 in 1.2 mi South 8.1 mph - 0.00 in Snow Light Snow
3:23 AM 1.4 °F -12.5 °F -4.0 °F 78% 29.65 in 1.5 mi South 8.1 mph - 0.00 in Snow Light Snow
3:31 AM 6.8 °F -5.9 °F 1.4 °F 79% 29.65 in 1.5 mi SSE 8.1 mph - 0.00 in Snow Light Snow
3:39 AM 3.2 °F -9.1 °F -0.4 °F 85% 29.65 in 1.2 mi South 6.9 mph - 0.00 in Snow Light Snow
3:48 AM 3.2 °F -10.3 °F -0.4 °F 85% 29.65 in 1.5 mi South 8.1 mph - 0.00 in Snow Light Snow
3:53 AM 3.9 °F -9.4 °F -0.0 °F 84% 30.00 in 0.8 mi South 8.1 mph - 0.00 in Snow Light Snow
3:58 AM 6.8 °F -4.8 °F 1.4 °F 79% 29.66 in 0.8 mi Variable 6.9 mph - 0.00 in Snow Light Snow
4:09 AM 8.6 °F -2.6 °F 3.2 °F 79% 29.66 in 1.2 mi South 6.9 mph - 0.00 in Snow Light Snow
4:17 AM 5.0 °F -5.6 °F -0.4 °F 78% 29.66 in 1.5 mi South 5.8 mph - 0.00 in Snow Light Snow
4:28 AM 8.6 °F -1.3 °F 3.2 °F 79% 29.67 in 1.2 mi Variable 5.8 mph - 0.00 in Snow Light Snow
4:46 AM 6.8 °F -4.8 °F -0.4 °F 72% 29.66 in 1.5 mi Variable 6.9 mph - 0.01 in Snow Light Snow
4:53 AM 6.1 °F -6.8 °F 1.9 °F 83% 30.00 in 1.5 mi South 8.1 mph - 0.01 in Snow Light Snow
4:59 AM 6.8 °F -6.9 °F 3.2 °F 85% 29.66 in 1.8 mi South 9.2 mph - 0.00 in Snow Light Snow
5:04 AM 6.8 °F -4.8 °F 3.2 °F 85% 29.66 in 2.0 mi Variable 6.9 mph - 0.00 in Snow Light Snow
5:25 AM 8.6 °F -2.6 °F 3.2 °F 79% 29.66 in 1.8 mi SSE 6.9 mph - 0.00 in Snow Light Snow
5:43 AM 10.4 °F 0.8 °F 6.8 °F 85% 29.67 in 1.2 mi Variable 5.8 mph - 0.00 in Snow Light Snow
5:53 AM 10.9 °F 0.2 °F 6.1 °F 81% 29.97 in 1.0 mi SSE 6.9 mph - 0.00 in Snow Light Snow
5:59 AM 10.4 °F -0.4 °F 5.0 °F 79% 29.67 in 0.8 mi South 6.9 mph - 0.00 in Snow Light Snow
6:29 AM 10.4 °F -0.4 °F 6.8 °F 85% 29.67 in 1.0 mi South 6.9 mph - 0.00 in Snow Light Snow
6:41 AM 10.4 °F -1.5 °F 6.8 °F 85% 29.67 in 0.8 mi South 8.1 mph - 0.00 in Snow Light Snow
6:53 AM 12.0 °F 0.5 °F 7.0 °F 80% 29.98 in 0.5 mi South 8.1 mph - 0.00 in Snow Snow
7:06 AM 12.2 °F 0.7 °F 8.6 °F 85% 29.67 in 0.8 mi South 8.1 mph - 0.00 in Snow Light Snow
7:11 AM 14.0 °F 2.9 °F 8.6 °F 79% 29.68 in 1.0 mi South 8.1 mph - 0.00 in Snow Light Snow
7:22 AM 14.0 °F 2.9 °F 8.6 °F 79% 29.68 in 1.2 mi South 8.1 mph - 0.00 in Snow Light Snow
7:32 AM 12.2 °F 1.7 °F 8.6 °F 85% 29.68 in 1.5 mi South 6.9 mph - 0.00 in Snow Light Snow
7:42 AM 12.2 °F 0.7 °F 8.6 °F 85% 29.68 in 0.8 mi South 8.1 mph - 0.00 in Snow Light Snow
7:53 AM 14.0 °F 2.0 °F 10.0 °F 84% 29.98 in 0.8 mi South 9.2 mph - 0.00 in Snow Light Snow
7:59 AM 15.8 °F 3.4 °F 10.4 °F 79% 29.68 in 0.8 mi South 10.4 mph - 0.00 in Snow Light Snow
8:12 AM 15.8 °F 4.2 °F 10.4 °F 79% 29.69 in 0.8 mi South 9.2 mph - 0.00 in Snow Light Snow
8:26 AM 15.8 °F 5.1 °F 10.4 °F 79% 29.69 in 1.2 mi South 8.1 mph - 0.00 in Snow Light Snow
8:40 AM 15.8 °F 4.2 °F 10.4 °F 79% 29.68 in 0.5 mi South 9.2 mph - 0.00 in Snow Snow
8:53 AM 16.0 °F 4.4 °F 10.9 °F 81% 29.97 in 0.8 mi South 9.2 mph - 0.01 in Snow Light Snow
9:06 AM 15.8 °F 5.1 °F 12.2 °F 86% 29.68 in 1.0 mi South 8.1 mph - 0.00 in Snow Light Snow
9:23 AM 17.6 °F 7.3 °F 12.2 °F 79% 29.68 in 1.0 mi South 8.1 mph - 0.00 in Snow Light Snow
9:33 AM 19.4 °F 11.5 °F 15.8 °F 86% 29.68 in 0.8 mi South 5.8 mph - 0.00 in Snow Light Snow
9:40 AM 19.4 °F 12.8 °F 15.8 °F 86% 29.68 in 1.0 mi Variable 4.6 mph - 0.00 in Snow Light Snow
9:50 AM 19.4 °F 12.8 °F 15.8 °F 86% 29.68 in 0.5 mi South 4.6 mph - 0.00 in Fog , Snow Snow
9:53 AM 19.9 °F 12.1 °F 16.0 °F 85% 29.95 in 0.2 mi South 5.8 mph - 0.00 in Fog , Snow Snow
10:10 AM 21.2 °F 12.6 °F 15.8 °F 80% 29.68 in 0.5 mi South 6.9 mph - 0.01 in Snow Snow
10:53 AM 21.9 °F 17.2 °F 18.0 °F 85% 29.94 in 0.5 mi Variable 3.5 mph - 0.02 in Fog , Snow Snow
11:31 AM 24.8 °F 19.1 °F 19.4 °F 80% 29.68 in 0.2 mi Variable 4.6 mph - 0.02 in Fog , Snow Snow
11:43 AM 24.8 °F 19.1 °F 21.2 °F 86% 29.68 in 0.5 mi Variable 4.6 mph - 0.02 in Fog , Snow Snow
11:53 AM 25.0 °F 17.1 °F 21.0 °F 85% 29.92 in 0.5 mi SSW 6.9 mph - 0.02 in Fog , Snow Light Snow
12:32 PM 26.6 °F 22.6 °F 21.2 °F 80% 29.67 in 0.2 mi Variable 3.5 mph - 0.02 in Fog , Snow Snow
12:53 PM 26.1 °F 20.5 °F 21.9 °F 84% 29.91 in 0.2 mi Variable 4.6 mph - 0.03 in Fog , Snow Snow
1:21 PM 26.6 °F - 23.0 °F 86% 29.67 in 0.5 mi Calm Calm - 0.02 in Fog , Snow Snow
1:44 PM 26.6 °F - 23.0 °F 86% 29.66 in 0.2 mi Calm Calm - 0.04 in Fog , Snow Heavy Snow
1:53 PM 27.0 °F - 23.0 °F 85% 29.88 in 0.5 mi Calm Calm - 0.04 in Fog , Snow Snow
2:24 PM 24.8 °F 19.1 °F 21.2 °F 86% 29.66 in 0.2 mi South 4.6 mph - 0.03 in Fog , Snow Snow
2:32 PM 24.8 °F 17.9 °F 21.2 °F 86% 29.65 in 0.2 mi South 5.8 mph - 0.03 in Fog , Snow Snow
2:44 PM 24.8 °F 19.1 °F 21.2 °F 86% 29.65 in 0.2 mi Variable 4.6 mph - 0.04 in Fog , Snow Snow
2:47 PM 24.8 °F 19.1 °F 21.2 °F 86% 29.65 in 0.5 mi Variable 4.6 mph - 0.04 in Fog , Snow Light Snow
2:53 PM 25.0 °F 20.7 °F 21.0 °F 85% 29.87 in 0.5 mi SSW 3.5 mph - 0.05 in Fog , Snow Light Snow
3:09 PM 24.8 °F 20.5 °F 19.4 °F 80% 29.65 in 0.2 mi Variable 3.5 mph - 0.01 in Fog , Snow Snow
3:53 PM 23.0 °F 17.0 °F 19.0 °F 85% 29.85 in 0.2 mi Variable 4.6 mph - 0.05 in Fog , Snow Snow
4:30 PM 24.8 °F 17.9 °F 19.4 °F 80% 29.63 in 0.5 mi Variable 5.8 mph - 0.05 in Fog , Snow Snow
4:37 PM 24.8 °F 20.5 °F 19.4 °F 80% 29.62 in 0.2 mi Variable 3.5 mph - 0.06 in Fog , Snow Snow
4:53 PM 25.0 °F 18.1 °F 21.9 °F 88% 29.82 in 0.2 mi Variable 5.8 mph - 0.07 in Fog , Snow Snow
5:35 PM 26.6 °F 20.0 °F 24.8 °F 93% 29.63 in 0.5 mi SSW 5.8 mph - 0.07 in Fog , Snow Snow
5:42 PM 26.6 °F 20.0 °F 24.8 °F 93% 29.63 in 0.2 mi Variable 5.8 mph - 0.08 in Fog , Snow Snow
5:49 PM 26.6 °F 20.0 °F 24.8 °F 93% 29.63 in 0.5 mi South 5.8 mph - 0.09 in Fog , Snow Snow
5:53 PM 27.0 °F 19.5 °F 24.1 °F 89% 29.80 in 0.5 mi SSW 6.9 mph - 0.10 in Fog , Snow Snow
6:53 PM 28.0 °F 19.3 °F 25.0 °F 88% 29.80 in 0.5 mi SSW 9.2 mph - 0.08 in Fog , Snow Snow
7:53 PM 30.0 °F 21.7 °F 28.0 °F 92% 29.78 in 0.5 mi SW 9.2 mph 21.9 mph 0.03 in Fog , Snow Snow
8:16 PM 30.2 °F 21.9 °F 28.4 °F 93% 29.65 in 0.2 mi SSW 9.2 mph 19.6 mph 0.03 in Fog , Snow Heavy Snow
8:29 PM 30.2 °F 21.9 °F 28.4 °F 93% 29.65 in 0.5 mi SSW 9.2 mph 21.9 mph 0.05 in Fog , Snow Light Snow
8:53 PM 30.9 °F 22.8 °F 28.0 °F 89% 29.78 in 0.5 mi SW 9.2 mph 23.0 mph 0.06 in Fog , Snow Light Snow
9:49 PM 30.2 °F 21.3 °F 28.4 °F 93% 29.69 in 1.5 mi WSW 10.4 mph 28.8 mph 0.03 in   Overcast
9:53 PM 30.9 °F 22.2 °F 28.0 °F 89% 29.79 in 5.0 mi WSW 10.4 mph 28.8 mph 0.03 in   Overcast
10:16 PM 30.2 °F 21.9 °F 28.4 °F 93% 29.68 in 6.0 mi West 9.2 mph 23.0 mph 0.00 in   Overcast
10:22 PM 30.2 °F 23.4 °F 28.4 °F 93% 29.68 in 1.5 mi Variable 6.9 mph - 0.00 in Snow Light Snow
10:25 PM 30.2 °F 23.4 °F 28.4 °F 93% 29.68 in 0.8 mi Variable 6.9 mph - 0.00 in Snow Light Snow
10:53 PM 30.9 °F 21.7 °F 28.9 °F 92% 29.76 in 0.5 mi SSW 11.5 mph 25.3 mph 0.03 in Fog , Snow Snow
11:49 PM 30.2 °F 20.2 °F 28.4 °F 93% 29.67 in 0.2 mi SW 12.7 mph 21.9 mph 0.05 in Fog , Snow Snow
11:53 PM 30.9 °F 22.8 °F 28.0 °F 89% 29.75 in 0.2 mi SW 9.2 mph 21.9 mph 0.05 in Fog , Snow Snow